Location: Krasnoyarskiy Pitomnik
(51.1333°N, 71.6167°E)
Time: 20:23:44
(UTC+00:00)

Envisat - Pass Details

Date: 02 March 2024
Orbit: 762 x 764 km, 98.3° (Epoch: 13 April)

Event Time Altitude Azimuth Distance (km) Brightness Sun altitude
Rises 23:03:45 0° 13° (NNE) 3,243 6.8 -26.9°
Reaches altitude 10° 23:06:04 10° 12° (NNE) 2,312 5.9 -26.6°
Enters shadow 23:10:59 75° 310° (NW) 796 2.9 -25.9°
